K4TPD-5 Weather Reports


time (UTC)temp
C
wind
direction
speed
KPH
gust
KPH
rain 1hr
cm
rain 24hr
cm
rain mn
cm
humidity
%
barometer
mb
20260906141048 27 342 0.0 1.6 0.00 0.00 0.00 93 1011.3
20260906140531 27 302 0.0 0.0 0.00 0.00 0.00 94 1011.4
20260906140037 27 304 0.0 0.0 0.00 0.00 0.00 95 1011.4
20260906135539 27 304 0.0 0.0 0.00 0.00 0.00 95 1011.4
20260906135025 27 286 0.0 0.0 0.00 0.00 0.00 96 1011.4
20260906134528 26 293 0.0 0.0 0.00 0.00 0.00 96 1011.4
20260906134053 26 343 0.0 1.6 0.00 0.00 0.00 97 1011.6
20260906133539 26 343 0.0 6.4 0.00 0.00 0.00 97 1011.6
20260906133023 26 345 0.0 6.4 0.00 0.00 0.00 97 1011.7
20260906132528 26 336 0.0 0.0 0.00 0.00 0.00 98 1011.8
20260906132035 26 336 0.0 0.0 0.00 0.00 0.00 98 1011.7
20260906131522 26 337 0.0 3.2 0.00 0.00 0.00 98 1011.8
20260906131027 26 337 0.0 3.2 0.00 0.00 0.00 98 1011.7
20260906130532 26 271 0.0 0.0 0.00 0.00 0.00 98 1011.6
20260906130039 26 309 0.0 0.0 0.00 0.00 0.00 98 1011.6
20260906125602 26 312 0.0 0.0 0.00 0.00 0.00 98 1011.5
20260906125027 25 313 0.0 0.0 0.00 0.00 0.00 98 1011.4
20260906124534 25 310 0.0 0.0 0.00 0.00 0.00 98 1011.4
20260906124038 25 286 0.0 0.0 0.00 0.00 0.00 98 1011.4
20260906123525 25 285 0.0 0.0 0.00 0.00 0.00 98 1011.5
20260906123047 25 285 0.0 0.0 0.00 0.00 0.00 98 1011.4
20260906122532 25 285 0.0 0.0 0.00 0.00 0.00 98 1011.4
20260906122035 25 285 0.0 0.0 0.00 0.00 0.00 98 1011.3
20260906121602 25 285 0.0 0.0 0.00 0.00 0.00 98 1011.2
20260906121029 25 285 0.0 0.0 0.00 0.00 0.00 98 1011.2
20260906120534 25 285 0.0 0.0 0.00 0.00 0.00 98 1011.1
20260906120040 25 284 0.0 0.0 0.00 0.00 0.00 98 1011.0
20260906115524 25 271 0.0 0.0 0.00 0.00 0.00 98 1011.0
20260906115029 25 270 0.0 0.0 0.00 0.00 0.00 98 1010.9
20260906114535 25 270 0.0 0.0 0.00 0.00 0.00 97 1010.9
20260906114039 25 270 0.0 0.0 0.00 0.00 0.00 97 1011.0
20260906113525 25 270 0.0 0.0 0.00 0.00 0.00 97 1011.0
20260906113028 25 270 0.0 0.0 0.00 0.00 0.00 98 1010.9
20260906112532 25 270 0.0 0.0 0.00 0.00 0.00 98 1011.0
20260906112038 25 270 0.0 0.0 0.00 0.00 0.00 98 1011.0
20260906111526 25 270 0.0 0.0 0.00 0.00 0.00 98 1010.9
20260906111031 25 270 0.0 0.0 0.00 0.00 0.00 98 1010.9
20260906110555 25 270 0.0 0.0 0.00 0.00 0.00 98 1010.8
20260906110040 25 270 0.0 0.0 0.00 0.00 0.00 98 1010.7
20260906105544 25 270 0.0 0.0 0.00 0.00 0.00 98 1010.6
20260906105028 25 270 0.0 0.0 0.00 0.00 0.00 98 1010.6
20260906104534 25 270 0.0 0.0 0.00 0.00 0.00 98 1010.5
20260906104039 25 270 0.0 0.0 0.00 0.00 0.00 98 1010.6
20260906103546 25 270 0.0 0.0 0.00 0.00 0.00 98 1010.4
20260906103048 25 270 0.0 0.0 0.00 0.00 0.00 97 1010.4
20260906102532 25 273 0.0 0.0 0.00 0.00 0.00 97 1010.3
20260906102037 25 273 0.0 0.0 0.00 0.00 0.00 97 1010.3
20260906101542 25 273 0.0 0.0 0.00 0.00 0.00 98 1010.3
20260906101025 25 273 0.0 0.0 0.00 0.00 0.00 97 1010.4
20260906100534 25 273 0.0 0.0 0.00 0.00 0.00 97 1010.3
20260906100059 25 273 0.0 0.0 0.00 0.00 0.00 97 1010.4
20260906095522 25 273 0.0 0.0 0.00 0.00 0.00 97 1010.3
20260906095047 25 273 0.0 0.0 0.00 0.00 0.00 97 1010.2
20260906094532 25 273 0.0 0.0 0.00 0.00 0.00 97 1010.2
20260906094036 25 273 0.0 0.0 0.00 0.00 0.00 97 1010.1
20260906093523 25 273 0.0 0.0 0.00 0.00 0.00 97 1010.1
20260906093028 25 273 0.0 0.0 0.00 0.00 0.00 97 1010.1
20260906092533 25 273 0.0 0.0 0.00 0.00 0.00 97 1010.1
20260906092040 25 273 0.0 0.0 0.00 0.00 0.00 97 1010.1
20260906091525 25 273 0.0 0.0 0.00 0.00 0.00 97 1010.1
20260906091029 25 273 0.0 0.0 0.00 0.00 0.00 97 1010.1
20260906090540 25 273 0.0 0.0 0.00 0.00 0.00 97 1010.0
20260906090044 25 273 0.0 0.0 0.00 0.00 0.00 97 1010.1
20260906085548 25 273 0.0 0.0 0.00 0.00 0.00 97 1010.0
20260906085028 25 273 0.0 0.0 0.00 0.00 0.00 97 1010.0
20260906084535 25 273 0.0 0.0 0.00 0.00 0.00 97 1009.9
20260906084040 25 273 0.0 0.0 0.00 0.00 0.00 97 1009.9
20260906083526 25 273 0.0 0.0 0.00 0.00 0.00 97 1009.9
20260906083049 25 269 0.0 0.0 0.00 0.00 0.00 97 1009.9
20260906082533 25 269 0.0 0.0 0.00 0.00 0.00 97 1009.9
20260906082039 25 269 0.0 0.0 0.00 0.00 0.00 96 1009.9
20260906081524 25 269 0.0 0.0 0.00 0.00 0.00 96 1009.8
20260906081028 25 269 0.0 0.0 0.00 0.00 0.00 97 1009.8
20260906080532 25 269 0.0 0.0 0.00 0.00 0.00 97 1009.7
20260906080037 25 269 0.0 0.0 0.00 0.00 0.00 97 1009.7
20260906075524 25 269 0.0 0.0 0.00 0.00 0.00 97 1009.8
20260906075029 25 269 0.0 0.0 0.00 0.00 0.00 97 1009.7
20260906074534 25 269 0.0 0.0 0.00 0.00 0.00 97 1009.7
20260906074038 25 269 0.0 0.0 0.00 0.00 0.00 97 1009.6
20260906073525 25 269 0.0 0.0 0.00 0.00 0.00 97 1009.8
20260906073049 25 269 0.0 0.0 0.00 0.00 0.00 96 1009.8
20260906072532 25 229 0.0 0.0 0.00 0.00 0.00 96 1009.8
20260906072037 25 229 0.0 0.0 0.00 0.00 0.00 96 1009.9
20260906071603 25 229 0.0 0.0 0.00 0.00 0.00 96 1010.0
20260906070530 25 229 0.0 0.0 0.00 0.00 0.00 96 1010.0
20260906070056 25 229 0.0 0.0 0.00 0.00 0.00 96 1010.0
20260906065600 25 229 0.0 0.0 0.00 0.00 0.00 96 1009.9
20260906065044 25 229 0.0 0.0 0.00 0.00 0.00 96 1010.1
20260906064534 25 229 0.0 0.0 0.00 0.00 0.00 96 1009.9
20260906064038 25 229 0.0 0.0 0.00 0.00 0.00 96 1009.9
20260906063604 26 229 0.0 0.0 0.00 0.00 0.00 96 1009.9
20260906063026 26 229 0.0 0.0 0.00 0.00 0.00 96 1010.1
20260906062531 26 229 0.0 0.0 0.00 0.00 0.00 96 1010.1
20260906062035 26 229 0.0 0.0 0.00 0.00 0.00 96 1010.1
20260906061542 26 229 0.0 0.0 0.00 0.00 0.00 96 1010.1
20260906061024 26 229 0.0 0.0 0.00 0.00 0.00 96 1010.1
20260906060530 26 229 0.0 0.0 0.00 0.00 0.00 96 1010.2
20260906060035 26 229 0.0 0.0 0.00 0.00 0.00 96 1010.2
20260906055539 26 229 0.0 0.0 0.00 0.00 0.00 96 1010.3
20260906055028 26 229 0.0 0.0 0.00 0.00 0.00 96 1010.4
20260906054534 26 229 0.0 0.0 0.00 0.00 0.00 96 1010.4
20260906054037 26 229 0.0 0.0 0.00 0.00 0.00 96 1010.5
20260906053523 26 229 0.0 0.0 0.00 0.00 0.00 96 1010.5
20260906053048 26 229 0.0 0.0 0.00 0.00 0.00 96 1010.5
20260906052533 26 229 0.0 0.0 0.00 0.00 0.00 96 1010.5
20260906052038 26 229 0.0 0.0 0.00 0.00 0.00 96 1010.5
20260906051543 26 229 0.0 0.0 0.00 0.00 0.00 96 1010.5
20260906051027 26 229 0.0 0.0 0.00 0.00 0.00 96 1010.5
20260906050532 26 229 0.0 0.0 0.00 0.00 0.00 96 1010.5
20260906050038 26 229 0.0 0.0 0.00 0.00 0.00 96 1010.6
20260906045522 26 229 0.0 0.0 0.00 0.00 0.00 96 1010.6
20260906045032 26 229 0.0 0.0 0.00 0.00 0.00 96 1010.7
20260906044539 26 229 0.0 0.0 0.00 0.00 0.00 96 1010.6
20260906044023 26 229 0.0 0.0 0.00 0.00 0.00 96 1010.7
20260906043528 26 229 0.0 0.0 0.00 0.00 0.00 96 1010.5
20260906043034 26 229 0.0 0.0 0.00 0.00 0.00 96 1010.5
20260906042539 26 229 0.0 0.0 0.00 0.00 0.00 95 1010.6
20260906042023 26 229 0.0 0.0 0.00 0.00 0.00 96 1010.7
20260906041531 26 229 0.0 0.0 0.00 0.00 0.00 96 1010.7
20260906041034 26 228 0.0 0.0 0.00 0.00 0.00 96 1010.5
20260906040537 26 229 0.0 0.0 0.00 0.00 0.00 96 1010.7
20260906040042 26 229 0.0 0.0 0.00 0.00 0.00 96 1010.9
20260906035528 26 229 0.0 0.0 0.00 0.00 0.00 95 1010.9
20260906035032 26 229 0.0 0.0 0.00 0.00 0.00 95 1011.0
20260906034539 26 229 0.0 0.0 0.00 0.00 0.00 95 1011.0
20260906034043 26 229 0.0 0.0 0.00 0.00 0.00 95 1011.1
20260906033528 26 229 0.0 0.0 0.00 0.00 0.00 95 1011.3
20260906033032 26 229 0.0 0.0 0.00 0.00 0.00 95 1011.3
20260906032536 26 229 0.0 0.0 0.00 0.00 0.00 95 1011.4
20260906032042 26 229 0.0 0.0 0.00 0.00 0.00 95 1011.3
20260906031526 26 229 0.0 0.0 0.00 0.00 0.00 94 1011.3
20260906031051 26 229 0.0 0.0 0.00 0.00 0.00 94 1011.2
20260906030534 26 229 0.0 0.0 0.00 0.00 0.00 94 1011.2
20260906030040 26 229 0.0 0.0 0.00 0.00 0.00 94 1011.2
20260906025544 26 229 0.0 0.0 0.00 0.00 0.00 94 1011.2
20260906025032 26 229 0.0 0.0 0.00 0.00 0.00 94 1011.1
20260906024538 26 229 0.0 0.0 0.00 0.00 0.00 94 1011.1
20260906024022 26 229 0.0 0.0 0.00 0.00 0.00 94 1011.0
20260906023529 26 229 0.0 0.0 0.00 0.00 0.00 93 1011.1
20260906023052 26 229 0.0 0.0 0.00 0.00 0.00 93 1011.1
20260906022535 27 229 0.0 0.0 0.00 0.00 0.00 93 1011.1
20260906022042 27 229 0.0 0.0 0.00 0.00 0.00 93 1011.0
20260906021546 27 229 0.0 0.0 0.00 0.00 0.00 93 1010.8
20260906021049 27 229 0.0 0.0 0.00 0.00 0.00 93 1010.7
20260906020533 27 229 0.0 0.0 0.00 0.00 0.00 93 1010.7
20260906020040 27 229 0.0 0.0 0.00 0.00 0.00 93 1010.5
20260906015522 27 229 0.0 0.0 0.00 0.00 0.00 93 1010.4
20260906015028 27 231 0.0 0.0 0.00 0.00 0.00 93 1010.3
20260906014552 27 231 0.0 0.0 0.00 0.00 0.00 93 1010.2
20260906014040 27 231 0.0 1.6 0.00 0.00 0.00 92 1010.2
20260906013526 27 231 0.0 1.6 0.00 0.00 0.00 92 1010.2
20260906013030 27 244 0.0 0.0 0.00 0.00 0.00 92 1010.1
20260906012535 27 244 0.0 0.0 0.00 0.00 0.00 92 1010.0
20260906012040 27 244 0.0 0.0 0.00 0.00 0.00 92 1009.9
20260906011524 27 223 0.0 0.0 0.00 0.00 0.00 92 1009.8
20260906011028 27 234 0.0 0.0 0.00 0.00 0.00 92 1009.8
20260906010533 27 221 0.0 0.0 0.00 0.00 0.00 92 1009.8
20260906010039 27 221 0.0 0.0 0.00 0.00 0.00 91 1009.7
20260906005522 27 234 0.0 0.0 0.00 0.00 0.00 91 1009.6
20260906005030 27 227 0.0 0.0 0.00 0.00 0.00 90 1009.6
20260906004537 27 227 0.0 0.0 0.00 0.00 0.00 91 1009.7
20260906004040 27 227 0.0 0.0 0.00 0.00 0.00 90 1009.7
20260906003526 27 241 0.0 6.4 0.00 0.00 0.00 90 1009.6
20260906003050 27 241 0.0 6.4 0.00 0.00 0.00 89 1009.6
20260906002552 27 242 0.0 9.7 0.00 0.00 0.00 89 1009.6
20260906002035 27 233 3.2 6.4 0.00 0.00 0.00 89 1009.6
20260906001541 27 241 0.0 6.4 0.00 0.00 0.00 89 1009.6
20260906001026 27 241 3.2 8.0 0.00 0.00 0.00 89 1009.5
20260906000551 27 236 0.0 8.0 0.00 0.00 0.00 88 1009.6
20260906000036 28 224 0.0 6.4 0.00 0.00 0.00 88 1009.6
20260905235539 28 228 1.6 11.3 0.00 0.03 0.00 87 1009.5
20260905235024 28 229 4.8 11.3 0.00 0.03 0.00 87 1009.5
20260905234534 28 246 3.2 8.0 0.00 0.03 0.00 88 1009.6
20260905234038 28 228 0.0 8.0 0.00 0.03 0.00 87 1009.7
20260905233523 28 240 1.6 8.0 0.00 0.03 0.00 87 1009.7
20260905233028 28 249 1.6 6.4 0.00 0.03 0.00 87 1009.7
20260905232532 28 211 0.0 1.6 0.00 0.03 0.00 86 1009.7
20260905232039 28 161 0.0 0.0 0.00 0.03 0.00 86 1009.7
20260905231523 28 161 0.0 0.0 0.00 0.03 0.00 85 1009.8
20260905231028 28 161 0.0 0.0 0.00 0.03 0.00 85 1009.8
20260905230533 28 238 0.0 6.4 0.00 0.03 0.00 84 1009.8
20260905230039 29 238 0.0 6.4 0.00 0.03 0.00 84 1009.8
20260905225527 29 237 3.2 8.0 0.00 0.30 0.00 84 1009.9
20260905225032 29 211 1.6 8.0 0.00 0.30 0.00 84 1009.8
20260905224537 29 232 0.0 8.0 0.00 0.30 0.00 83 1009.8
20260905224022 29 148 3.2 8.0 0.00 0.30 0.00 83 1009.9
20260905223548 29 144 4.8 8.0 0.00 0.30 0.00 82 1009.9
20260905223031 29 162 0.0 1.6 0.00 0.30 0.00 84 1009.9
20260905222556 29 146 0.0 8.0 0.00 0.30 0.00 83 1009.9
20260905222041 29 157 0.0 8.0 0.00 0.30 0.00 83 1009.8
20260905221544 29 183 0.0 1.6 0.00 0.30 0.00 84 1009.7
20260905221028 29 161 0.0 6.4 0.00 0.30 0.00 84 1009.8
20260905220533 30 153 1.6 9.7 0.00 0.30 0.00 83 1009.9
20260905220037 30 134 0.0 3.2 0.00 0.30 0.00 82 1009.9
20260905215540 30 162 0.0 3.2 0.00 0.41 0.00 81 1009.9
20260905215029 30 161 0.0 11.3 0.00 0.41 0.00 80 1010.0
20260905214556 30 210 3.2 11.3 0.00 0.41 0.00 79 1010.1
20260905214059 30 250 6.4 11.3 0.00 0.41 0.00 79 1010.1
20260905213524 31 207 3.2 11.3 0.00 0.41 0.00 78 1010.0
20260905213028 31 265 4.8 11.3 0.00 0.41 0.00 78 1010.0
20260905212532 31 233 4.8 9.7 0.00 0.41 0.00 79 1010.0
20260905212039 31 239 6.4 9.7 0.00 0.41 0.00 79 1009.9
20260905211523 31 242 6.4 12.9 0.00 0.41 0.00 79 1009.9
20260905211048 31 238 3.2 11.3 0.00 0.41 0.00 79 1009.8
20260905210531 31 258 3.2 11.3 0.00 0.41 0.00 79 1009.9
20260905210037 32 246 6.4 17.7 0.00 0.41 0.00 78 1010.1
20260905205540 32 245 3.2 8.0 0.00 3.81 0.00 76 1010.2
20260905205026 32 184 0.0 8.0 0.00 3.81 0.00 74 1010.1
20260905204535 33 234 0.0 8.0 0.00 3.81 0.00 71 1010.1
20260905204039 33 225 0.0 6.4 0.00 3.81 0.00 69 1010.0
20260905203543 33 211 1.6 8.0 0.00 3.81 0.00 71 1010.0
20260905203026 34 224 4.8 8.0 0.00 3.81 0.00 68 1009.9
20260905202531 34 199 0.0 8.0 0.00 3.81 0.00 69 1009.8
20260905202036 33 187 3.2 9.7 0.00 3.81 0.00 68 1009.9
20260905201542 33 124 4.8 9.7 0.00 3.81 0.00 70 1010.2
20260905201027 33 182 0.0 6.4 0.00 3.81 0.00 71 1010.3
20260905200531 33 205 1.6 6.4 0.00 3.81 0.00 71 1010.5
20260905200037 33 184 3.2 4.8 0.00 3.81 0.00 69 1010.5
20260905195524 33 161 1.6 9.7 0.00 4.95 0.00 68 1010.5
20260905195048 33 248 3.2 9.7 0.00 4.95 0.00 70 1010.5
20260905194534 33 255 1.6 9.7 0.00 4.95 0.00 67 1010.5
20260905194038 33 167 3.2 8.0 0.00 4.95 0.00 68 1010.4
20260905193524 33 212 3.2 8.0 0.00 4.95 0.00 69 1010.5
20260905193028 33 208 3.2 6.4 0.00 4.95 0.00 71 1010.7
20260905192552 32 142 0.0 8.0 0.00 4.95 0.00 73 1010.8
20260905192036 32 221 3.2 8.0 0.00 4.95 0.00 73 1011.0
20260905191543 32 180 0.0 0.0 0.00 4.95 0.00 72 1011.0
20260905191025 32 252 0.0 0.0 0.00 4.95 0.00 73 1011.2
20260905190531 32 252 0.0 0.0 0.00 4.95 0.00 73 1011.2
20260905190037 32 252 0.0 0.0 0.00 4.95 0.00 73 1011.3
20260905185523 33 252 0.0 0.0 0.00 4.95 0.00 72 1011.4
20260905185029 33 252 0.0 0.0 0.00 4.95 0.00 71 1011.4
20260905184536 33 250 0.0 0.0 0.00 4.95 0.00 72 1011.4
20260905184040 33 248 0.0 0.0 0.00 4.95 0.00 70 1011.4
20260905183526 33 84 0.0 0.0 0.00 4.95 0.00 71 1011.3
20260905183030 33 60 0.0 6.4 0.00 4.95 0.00 73 1011.4
20260905182555 33 65 0.0 6.4 0.00 4.95 0.00 72 1011.4
20260905182100 33 71 1.6 3.2 0.00 4.95 0.00 70 1011.4
20260905181524 33 229 0.0 6.4 0.00 4.95 0.00 70 1011.5
20260905181028 33 229 3.2 8.0 0.00 4.95 0.00 72 1011.5
20260905180533 32 300 1.6 8.0 0.00 4.95 0.00 70 1011.7
20260905180038 32 277 1.6 3.2 0.00 4.95 0.00 72 1011.7
20260905175526 32 158 0.0 0.0 0.00 4.95 0.00 72 1011.7
20260905175050 33 196 0.0 0.0 0.00 4.95 0.00 70 1011.8
20260905174535 32 281 0.0 0.0 0.00 4.95 0.00 74 1012.0
20260905174038 32 284 0.0 8.0 0.00 4.95 0.00 74 1012.0
20260905173525 32 281 4.8 8.0 0.00 4.95 0.00 73 1012.1
20260905173049 32 332 0.0 0.0 0.00 4.95 0.00 76 1012.1
20260905172533 32 277 0.0 3.2 0.00 4.95 0.00 76 1012.2
20260905172040 32 252 1.6 6.4 0.00 4.95 0.00 76 1012.3
20260905171524 31 252 0.0 6.4 0.00 4.95 0.00 77 1012.5
20260905171030 31 261 3.2 8.0 0.00 4.95 0.00 78 1012.6
20260905170533 31 257 4.8 8.0 0.00 4.95 0.00 80 1012.7
20260905170040 31 246 1.6 6.4 0.00 4.95 0.00 82 1012.7
20260905165527 31 184 0.0 0.0 0.00 4.95 0.00 81 1012.8
20260905165032 31 157 0.0 0.0 0.00 4.95 0.00 79 1012.9
20260905164538 31 263 0.0 8.0 0.00 4.95 0.00 80 1012.9
20260905164043 31 263 4.8 9.7 0.00 4.95 0.00 84 1013.0
20260905163528 30 232 4.8 9.7 0.00 4.95 0.00 84 1013.1
20260905163034 30 246 0.0 6.4 0.00 4.95 0.00 84 1013.2
20260905162558 30 246 0.0 8.0 0.00 4.95 0.00 87 1013.2
20260905162043 29 246 3.2 8.0 0.00 4.95 0.00 91 1013.2
20260905161547 29 192 3.2 8.0 0.00 4.95 0.00 89 1013.3
20260905161050 28 49 0.0 3.2 0.00 4.95 0.00 91 1013.3
20260905160534 28 38 0.0 3.2 0.00 4.95 0.00 90 1013.3
20260905160059 28 88 0.0 1.6 0.00 4.95 0.00 93 1013.2
20260905155541 27 68 0.0 1.6 0.00 4.95 0.00 95 1013.2
20260905155026 27 68 0.0 3.2 0.00 4.95 0.00 97 1013.2
20260905154532 27 293 0.0 3.2 0.00 4.95 0.00 98 1013.2
20260905154039 27 54 0.0 1.6 0.00 4.95 0.00 98 1013.3
20260905153546 26 57 0.0 1.6 0.00 4.95 0.00 99 1013.4
20260905153029 26 5 0.0 0.0 0.00 4.95 0.00 99 1013.5
20260905152535 26 342 0.0 0.0 0.00 4.95 0.00 99 1013.5
20260905152041 26 342 0.0 0.0 0.00 4.95 0.00 99 1013.5
20260905151526 26 342 0.0 0.0 0.00 4.95 0.00 99 1013.6
20260905151031 26 342 0.0 0.0 0.00 4.95 0.00 99 1013.6
20260905150536 26 342 0.0 0.0 0.00 4.95 0.00 99 1013.5
20260905145525 26 342 0.0 1.6 0.00 4.95 0.00 99 1013.4
20260905145029 26 355 0.0 0.0 0.00 4.95 0.00 99 1013.3
20260905144536 26 355 0.0 0.0 0.00 4.95 0.00 99 1013.3
20260905144024 26 355 0.0 0.0 0.00 4.95 0.00 99 1013.3
20260905143528 26 355 0.0 0.0 0.00 4.95 0.00 99 1013.3
20260905143034 26 355 0.0 0.0 0.00 4.95 0.00 99 1013.3
20260905142538 26 355 0.0 0.0 0.00 4.95 0.00 99 1013.3
20260905142023 25 355 0.0 0.0 0.00 4.95 0.00 99 1013.4
20260905141528 25 355 0.0 0.0 0.00 4.95 0.00 99 1013.4